sat.trackr.live / text

‹ back to catalog

STARLINK-6032

NORAD 57371 · 2023-099AV

PAYLOAD ACTIVE UNKNOWN

§ Identity

Operator
Country
US
Launch date
2023-07-16
Launch site
AFETR
Launch vehicle
Mass (kg)
RCS (m²)

Purposes: comms

External: N2YO · Heavens-Above · Gunter

§ Orbital elements

Epoch: 2026-05-25T01:57:13.527648Z

Period
94.32 min
Inclination
43.0023°
Eccentricity
0.0001336
Mean motion
15.26732874 rev/d
Perigee alt
484.7 km
Apogee alt
486.5 km
Semi-major
6,863.7 km
B*
5.8528e-5
RAAN
170.1493°
Arg perigee
269.4062°
Mean anomaly
90.6636°
Rev number
15,788

§ Raw data

STARLINK-60321 57371U 23099AV  26145.08140657  .00001310  00000+0  58528-4 0  99912 57371  43.0023 170.1493 0001336 269.4062  90.6636 15.26732874157888

JSON: /api/v1/satellites/57371 · /tle

For live sub-satellite position, see the globe view (requires WebGL).

§ Visibility from observer

Set your observer location to see the next 7 days of passes ≥ 10°. The values pass through the URL so the page stays shareable.

No JS? Fill the form by hand. The geolocation button needs JavaScript.